Weather History for KTOP - September, 2013

Change the Weather History Date:

Monday, September 9, 2013

  Actual Average Record
Temperature  
Mean Temperature 85 °F 71 °F  
Max Temperature 98 °F 83 °F 101 °F (1970)
Min Temperature 72 °F 59 °F 42 °F (1976)
Degree Days  
Heating Degree Days 0 1  
Month to date heating degree days 0 4  
Since 1 July heating degree days 0 6  
Cooling Degree Days 20 7  
Month to date cooling degree days 124 74  
Year to date cooling degree days 1418 1302  
Growing Degree Days 35 (Base 50)    
Moisture  
Dew Point 61 °F    
Average Humidity 50    
Maximum Humidity 73    
Minimum Humidity 26    
Precipitation  
Precipitation 0.00 in 0.13 in 1.43 in (1922)
Month to date precipitation 0.29 1.10  
Year to date precipitation 24.76 27.67  
Snow  
Snow 0.00 in 0.00 in 0.00 in ()
Month to date snowfall 0.0 0.0  
Year to date snowfall 24.2 11.3  
Since 1 July snowfall 0.0 0.0  
Snow Depth 0.00 in    
Sea Level Pressure  
Sea Level Pressure 29.86 in    
Wind  
Wind Speed 8 mph (SSW)    
Max Wind Speed 23 mph    
Max Gust Speed 35 mph    
Visibility 10 miles    
Events      
T = Trace of Precipitation, MM = Missing Value Source: NWS Daily Summary

Daily Weather History Graph

Daily Weather History Graph

Search for Another Location

Airport or City:

Trip Planner

Search our weather history database for the weather conditions in past years. The results will help you decide how hot, cold, wet, or windy it might be!

Date:

Astronomy

Sep. 09, 2013 Rise Set
Actual Time 6:58 AM CDT 7:40 PM CDT
Civil Twilight 6:31 AM CDT 8:06 PM CDT
Nautical Twilight 5:59 AM CDT 8:38 PM CDT
Astronomical Twilight 5:26 AM CDT 9:11 PM CDT
Moon 11:18 AM CDT (9/9) 9:59 PM CDT (9/9)
Length of Visible Light 13h 35m
Length of Day
12h 41m
Waxing Crescent, 19% of the Moon is Illuminated
Sep 9
Waxing Crescent
Sep 12
First Quarter
Sep 19
Full
Sep 26
Last Quarter
Oct 4
New

Hourly Weather History & Observations

Time (CDT) Temp. Heat Index Dew Point Humidity Pressure Visibility Wind Dir Wind Speed Gust Speed Precip Events Conditions
12:53 AM 82.9 °F 84.4 °F 64.0 °F 53% 29.83 in 10.0 mi SSW 8.1 mph - N/A   Clear
1:53 AM 82.0 °F 83.1 °F 63.0 °F 52% 29.83 in 10.0 mi SSW 8.1 mph - N/A   Clear
2:53 AM 78.1 °F - 64.0 °F 62% 29.84 in 10.0 mi SSE 4.6 mph - N/A   Clear
3:53 AM 73.9 °F - 64.0 °F 71% 29.84 in 10.0 mi ESE 3.5 mph - N/A   Clear
4:53 AM 73.9 °F - 63.0 °F 68% 29.85 in 10.0 mi Calm Calm - N/A   Clear
5:53 AM 73.9 °F - 63.0 °F 68% 29.86 in 10.0 mi Calm Calm - N/A   Clear
6:53 AM 73.9 °F - 62.1 °F 66% 29.87 in 10.0 mi Calm Calm - N/A   Clear
7:53 AM 77.0 °F - 62.1 °F 60% 29.88 in 10.0 mi Calm Calm - N/A   Clear
8:53 AM 82.0 °F 83.0 °F 62.1 °F 51% 29.89 in 10.0 mi SW 6.9 mph - N/A   Clear
9:53 AM 86.0 °F 86.3 °F 62.1 °F 44% 29.90 in 10.0 mi SW 6.9 mph - N/A   Clear
10:53 AM 90.0 °F 90.6 °F 63.0 °F 40% 29.90 in 10.0 mi Variable 6.9 mph - N/A   Clear
11:53 AM 93.0 °F 94.6 °F 64.0 °F 38% 29.89 in 10.0 mi SW 12.7 mph 19.6 mph N/A   Clear
12:53 PM 95.0 °F 95.6 °F 62.1 °F 33% 29.88 in 10.0 mi SSW 11.5 mph - N/A   Clear
1:53 PM 96.1 °F 96.4 °F 61.0 °F 31% 29.86 in 10.0 mi South 18.4 mph 26.5 mph N/A   Clear
2:53 PM 98.1 °F 98.1 °F 60.1 °F 28% 29.85 in 10.0 mi SW 19.6 mph 29.9 mph N/A   Clear
3:53 PM 97.0 °F 96.5 °F 59.0 °F 28% 29.84 in 10.0 mi SSW 11.5 mph 27.6 mph N/A   Clear
4:53 PM 96.1 °F 94.8 °F 57.0 °F 27% 29.84 in 10.0 mi South 19.6 mph 26.5 mph N/A   Clear
5:53 PM 95.0 °F 93.4 °F 55.9 °F 27% 29.85 in 10.0 mi SSW 13.8 mph 21.9 mph N/A   Clear
6:53 PM 93.0 °F 90.8 °F 54.0 °F 27% 29.85 in 10.0 mi SSW 13.8 mph - N/A   Clear
7:53 PM 89.1 °F 87.7 °F 57.0 °F 34% 29.86 in 10.0 mi South 6.9 mph - N/A   Clear
8:53 PM 84.9 °F 84.4 °F 59.0 °F 41% 29.87 in 10.0 mi South 6.9 mph - N/A   Clear
9:53 PM 82.9 °F 83.3 °F 61.0 °F 47% 29.89 in 10.0 mi South 9.2 mph - N/A   Clear
10:53 PM 81.0 °F 81.7 °F 61.0 °F 50% 29.90 in 10.0 mi South 6.9 mph - N/A   Clear
11:53 PM 80.1 °F 81.1 °F 61.0 °F 52% 29.91 in 10.0 mi South 8.1 mph - N/A   Clear